Photometre #851[NE_1.6_Dp] Glasgow_MO AOT

File : 20220828_851.hum

28/08/2022,06:19:34,TEMP=12.5,BA=5.64,STAT.A,ExtBa=12.10
28/08/2022,06:24:08,TEMP=12.7,BA=5.64,STAT.A,ExtBa=12.10
28/08/2022,06:29:27,TEMP=12.8,BA=5.64,STAT.A,ExtBa=12.10
28/08/2022,06:35:46,TEMP=13.0,BA=5.64,STAT.A,ExtBa=12.10
28/08/2022,06:43:20,TEMP=13.2,BA=5.64,STAT.A,ExtBa=12.10
28/08/2022,06:52:38,TEMP=13.4,BA=5.64,STAT.A,ExtBa=12.10
28/08/2022,07:04:20,TEMP=13.8,BA=5.64,STAT.B,ExtBa=12.10
28/08/2022,07:09:54,TEMP=14.1,BA=5.64,STAT.A,ExtBa=12.10
28/08/2022,07:16:08,TEMP=14.4,BA=5.64,STAT.A,ExtBa=12.10
28/08/2022,07:23:09,TEMP=14.6,BA=5.64,STAT.A,ExtBa=12.10
28/08/2022,07:27:23,TEMP=14.9,BA=5.64,STAT.D,ExtBa=12.10
28/08/2022,07:31:07,TEMP=15.1,BA=5.64,STAT.A,ExtBa=12.10
28/08/2022,07:40:16,TEMP=15.2,BA=5.64,STAT.C,ExtBa=12.10
28/08/2022,07:50:53,TEMP=15.4,BA=5.64,STAT.A,ExtBa=12.10
28/08/2022,08:03:23,TEMP=15.9,BA=5.64,STAT.A,ExtBa=12.10
28/08/2022,08:15:24,TEMP=16.5,BA=5.64,STAT.D,ExtBa=12.10
28/08/2022,08:18:25,TEMP=16.8,BA=5.64,STAT.A,ExtBa=12.10
28/08/2022,08:30:24,TEMP=17.2,BA=5.64,STAT.D,ExtBa=12.10
28/08/2022,08:36:57,TEMP=17.5,BA=5.64,STAT.A,ExtBa=12.10
28/08/2022,08:48:24,TEMP=17.8,BA=5.64,STAT.D,ExtBa=12.10
28/08/2022,09:00:24,TEMP=18.4,BA=5.64,STAT.D,ExtBa=12.10
28/08/2022,09:02:25,TEMP=18.9,BA=5.64,STAT.B,ExtBa=12.10
28/08/2022,09:11:23,TEMP=19.6,BA=5.60,STAT.D,ExtBa=12.00
28/08/2022,09:15:24,TEMP=19.5,BA=5.60,STAT.D,ExtBa=12.00
28/08/2022,09:18:24,TEMP=19.7,BA=5.60,STAT.D,ExtBa=12.00
28/08/2022,09:20:25,TEMP=20.0,BA=5.64,STAT.F,ExtBa=12.00
28/08/2022,09:44:28,TEMP=21.3,BA=5.60,STAT.D,ExtBa=11.90
28/08/2022,09:51:56,TEMP=20.8,BA=5.60,STAT.D,ExtBa=12.00
28/08/2022,09:54:24,TEMP=21.1,BA=5.60,STAT.D,ExtBa=12.00
28/08/2022,09:57:24,TEMP=21.3,BA=5.60,STAT.D,ExtBa=12.00
28/08/2022,10:00:24,TEMP=21.6,BA=5.64,STAT.D,ExtBa=12.00
28/08/2022,10:03:24,TEMP=21.9,BA=5.64,STAT.D,ExtBa=12.00
28/08/2022,10:05:23,TEMP=22.5,BA=5.64,STAT.D,ExtBa=12.00
28/08/2022,10:09:24,TEMP=22.6,BA=5.64,STAT.D,ExtBa=12.00
28/08/2022,10:12:24,TEMP=23.1,BA=5.56,STAT.D,ExtBa=12.00
28/08/2022,10:15:24,TEMP=23.4,BA=5.56,STAT.D,ExtBa=12.00
28/08/2022,10:18:24,TEMP=23.6,BA=5.56,STAT.D,ExtBa=12.00
28/08/2022,10:20:25,TEMP=24.0,BA=5.60,STAT.F,ExtBa=12.00
28/08/2022,10:47:45,TEMP=23.4,BA=5.52,STAT.D,ExtBa=12.00
28/08/2022,10:50:08,TEMP=23.5,BA=5.56,STAT.D,ExtBa=12.00
28/08/2022,10:54:25,TEMP=23.3,BA=5.56,STAT.D,ExtBa=12.00
28/08/2022,11:05:08,TEMP=22.9,BA=5.64,STAT.D,ExtBa=12.00
28/08/2022,11:18:25,TEMP=22.9,BA=5.64,STAT.D,ExtBa=12.00
28/08/2022,11:20:25,TEMP=23.5,BA=5.60,STAT.F,ExtBa=12.00
28/08/2022,11:46:41,TEMP=25.5,BA=5.52,STAT.D,ExtBa=11.90
28/08/2022,11:50:09,TEMP=25.2,BA=5.56,STAT.D,ExtBa=11.90
28/08/2022,11:54:25,TEMP=24.9,BA=5.56,STAT.D,ExtBa=12.00
28/08/2022,11:57:25,TEMP=24.9,BA=5.56,STAT.D,ExtBa=12.00
28/08/2022,12:00:25,TEMP=24.9,BA=5.64,STAT.D,ExtBa=12.00
28/08/2022,12:03:25,TEMP=25.0,BA=5.64,STAT.D,ExtBa=12.00
28/08/2022,12:05:17,TEMP=25.3,BA=5.64,STAT.D,ExtBa=11.90
28/08/2022,12:09:25,TEMP=25.0,BA=5.64,STAT.D,ExtBa=12.00
28/08/2022,12:12:25,TEMP=24.9,BA=5.52,STAT.D,ExtBa=12.00
28/08/2022,12:20:10,TEMP=24.1,BA=5.56,STAT.F,ExtBa=12.00
28/08/2022,12:44:31,TEMP=24.1,BA=5.52,STAT.D,ExtBa=11.90
28/08/2022,12:51:58,TEMP=23.4,BA=5.52,STAT.D,ExtBa=12.00
28/08/2022,12:54:01,TEMP=23.7,BA=5.52,STAT.D,ExtBa=11.90
28/08/2022,12:57:25,TEMP=23.5,BA=5.52,STAT.D,ExtBa=12.00
28/08/2022,13:00:25,TEMP=23.6,BA=5.64,STAT.D,ExtBa=12.00
28/08/2022,13:03:25,TEMP=23.6,BA=5.64,STAT.D,ExtBa=12.00
28/08/2022,13:05:27,TEMP=23.8,BA=5.64,STAT.D,ExtBa=11.90
28/08/2022,13:15:25,TEMP=23.2,BA=5.64,STAT.D,ExtBa=12.00
28/08/2022,13:18:24,TEMP=23.3,BA=5.64,STAT.D,ExtBa=12.00
28/08/2022,13:20:25,TEMP=23.7,BA=5.56,STAT.F,ExtBa=12.00
28/08/2022,13:47:44,TEMP=25.4,BA=5.52,STAT.D,ExtBa=11.90
28/08/2022,13:50:59,TEMP=24.9,BA=5.48,STAT.D,ExtBa=11.90
28/08/2022,13:54:24,TEMP=24.6,BA=5.48,STAT.D,ExtBa=12.00
28/08/2022,14:05:08,TEMP=24.2,BA=5.64,STAT.D,ExtBa=12.00
28/08/2022,14:09:24,TEMP=24.3,BA=5.64,STAT.D,ExtBa=12.00
28/08/2022,14:12:24,TEMP=24.4,BA=5.52,STAT.D,ExtBa=12.00
28/08/2022,14:15:24,TEMP=24.4,BA=5.52,STAT.D,ExtBa=12.00
28/08/2022,14:18:24,TEMP=24.2,BA=5.52,STAT.D,ExtBa=12.00
28/08/2022,14:20:27,TEMP=24.4,BA=5.52,STAT.F,ExtBa=11.90
28/08/2022,14:44:37,TEMP=24.2,BA=5.52,STAT.D,ExtBa=11.90
28/08/2022,14:48:24,TEMP=23.7,BA=5.52,STAT.D,ExtBa=11.90
28/08/2022,14:50:22,TEMP=23.9,BA=5.56,STAT.D,ExtBa=11.90
28/08/2022,14:54:24,TEMP=23.5,BA=5.56,STAT.D,ExtBa=12.00
28/08/2022,14:57:24,TEMP=23.5,BA=5.56,STAT.D,ExtBa=11.90
28/08/2022,15:00:24,TEMP=23.5,BA=5.64,STAT.D,ExtBa=11.90
28/08/2022,15:03:24,TEMP=23.5,BA=5.64,STAT.D,ExtBa=11.90
28/08/2022,15:05:36,TEMP=23.7,BA=5.64,STAT.D,ExtBa=11.90
28/08/2022,15:15:24,TEMP=22.9,BA=5.64,STAT.D,ExtBa=12.00
28/08/2022,15:18:24,TEMP=22.9,BA=5.64,STAT.D,ExtBa=12.00
28/08/2022,15:20:25,TEMP=23.2,BA=5.56,STAT.F,ExtBa=11.90
28/08/2022,15:44:27,TEMP=23.2,BA=5.52,STAT.D,ExtBa=11.90
28/08/2022,15:47:43,TEMP=22.9,BA=5.52,STAT.B,ExtBa=11.90
28/08/2022,15:57:24,TEMP=22.7,BA=5.52,STAT.D,ExtBa=11.90
28/08/2022,16:00:24,TEMP=22.6,BA=5.64,STAT.D,ExtBa=11.90
28/08/2022,16:03:21,TEMP=22.5,BA=5.64,STAT.A,ExtBa=11.90
28/08/2022,16:06:24,TEMP=22.4,BA=5.64,STAT.D,ExtBa=11.90
28/08/2022,16:09:24,TEMP=22.4,BA=5.64,STAT.D,ExtBa=11.90
28/08/2022,16:12:24,TEMP=22.3,BA=5.52,STAT.D,ExtBa=11.90
28/08/2022,16:15:24,TEMP=22.2,BA=5.52,STAT.D,ExtBa=11.90
28/08/2022,16:18:24,TEMP=22.1,BA=5.52,STAT.D,ExtBa=11.90
28/08/2022,16:21:24,TEMP=22.0,BA=5.56,STAT.D,ExtBa=12.00
28/08/2022,16:23:25,TEMP=22.2,BA=5.56,STAT.A,ExtBa=11.90
28/08/2022,16:27:24,TEMP=21.8,BA=5.56,STAT.D,ExtBa=12.00
28/08/2022,16:36:55,TEMP=21.4,BA=5.64,STAT.A,ExtBa=12.00
28/08/2022,16:48:24,TEMP=21.2,BA=5.64,STAT.D,ExtBa=12.00
28/08/2022,16:50:23,TEMP=21.6,BA=5.60,STAT.A,ExtBa=12.00
28/08/2022,17:00:02,TEMP=20.9,BA=5.60,STAT.C,ExtBa=12.00
28/08/2022,17:09:11,TEMP=20.7,BA=5.56,STAT.A,ExtBa=12.00
28/08/2022,17:17:09,TEMP=20.5,BA=5.56,STAT.A,ExtBa=12.00
28/08/2022,17:24:10,TEMP=20.4,BA=5.60,STAT.A,ExtBa=12.00
28/08/2022,17:30:24,TEMP=20.2,BA=5.64,STAT.A,ExtBa=12.00
28/08/2022,17:35:58,TEMP=20.2,BA=5.64,STAT.B,ExtBa=12.00
28/08/2022,17:47:40,TEMP=19.8,BA=5.64,STAT.A,ExtBa=12.00
28/08/2022,17:56:58,TEMP=19.6,BA=5.64,STAT.A,ExtBa=12.00
28/08/2022,18:04:32,TEMP=19.5,BA=5.60,STAT.A,ExtBa=12.00
28/08/2022,18:09:23,TEMP=19.4,BA=5.60,STAT.D,ExtBa=12.00
28/08/2022,18:11:25,TEMP=19.7,BA=5.56,STAT.A,ExtBa=11.90
28/08/2022,18:15:23,TEMP=19.3,BA=5.56,STAT.D,ExtBa=12.00
28/08/2022,18:18:28,TEMP=19.6,BA=5.56,STAT.A,ExtBa=11.90
28/08/2022,18:22:11,TEMP=19.5,BA=5.52,STAT.A,ExtBa=11.90